Flag for Russia Weather past 2 weeks in Khabarovsk, Russia

Now
45 °F

Mostly cloudy.


Feels Like: 41 °F
Forecast: 42 / 55 °F
Wind: 6 mph from South

Location: Habarovsk


UV Index: 3 (Moderate)

Visibility: N/A


Pressure: 29.80 "Hg

Humidity: 61%

Dew point: 32 °F

Location of KhabarovskLocation

Historic Weather in Khabarovsk

°F

Khabarovsk temperature yesterday

Maximum temperature yesterday: 61 °F (at 3:00 PM)
Minimum temperature yesterday: 36 °F (at 7:30 AM)
Average temperature yesterday: 50 °F

Past Weeks' High & Low Weather Summary

 TemperatureHumidityPressure
High70 °F (Apr 14, 5:30 PM)100% (Apr 10, 3:30 AM)30.24 "Hg (Apr 10, 3:30 AM)
Low23 °F (Apr 11, 4:30 AM)16% (Apr 12, 6:30 PM)29.42 "Hg (Apr 15, 1:00 AM)
Average42 °F46%29.88 "Hg
* Reported Apr 6 5:00 AM — Apr 21 5:30 AM, Khabarovsk, Weather by CustomWeather, © 2014

Note: Actual official high and low records may vary slightly from our data, if they occured in-between our weather recording intervals... More about our weather records

Advertising

Historic Weather Conditions — Data for Previous 24 hours

 ConditionsComfort  
Time TempWeatherWind HumidityBarometerVisibility
5:30 AM
Apr 21
48 °FMostly cloudy.3 mph54%29.80 "HgN/A
5:00 AM48 °FMostly cloudy.6 mph58%29.80 "HgN/A
4:30 AM48 °FMostly cloudy.3 mph58%29.80 "HgN/A
4:00 AM52 °FSprinkles. Mostly cloudy.1 mph47%29.80 "HgN/A
3:30 AM48 °FSprinkles. Mostly cloudy.8 mph54%29.83 "HgN/A
3:00 AM48 °FMostly cloudy.1 mph54%29.83 "HgN/A
2:30 AM46 °FClear.3 mph57%29.83 "Hg10 mi
2:00 AM45 °FClear.6 mph61%29.83 "Hg10 mi
1:30 AM48 °FClear.8 mph50%29.83 "Hg10 mi
1:00 AM50 °FClear.13 mph47%29.83 "Hg10 mi
12:30 AM46 °FClear.6 mph46%29.83 "Hg10 mi
12:00 AM46 °FClear.1 mph43%29.83 "Hg10 mi
11:30 PM
Apr 20
48 °FClear.No wind40%29.83 "Hg10 mi
11:00 PM48 °FClear.No wind40%29.83 "Hg10 mi
10:30 PM48 °FClear.No wind43%29.83 "Hg10 mi
10:00 PM52 °FClear.3 mph35%29.83 "Hg10 mi
9:30 PM52 °FSunny.6 mph35%29.83 "Hg10 mi
9:00 PM54 °FSunny.3 mph33%29.83 "Hg10 mi
8:30 PM55 °FSunny.6 mph31%29.83 "Hg10 mi
8:00 PM57 °FSunny.6 mph23%29.83 "Hg10 mi
7:30 PM59 °FSunny.6 mph21%29.83 "Hg10 mi
7:00 PM59 °FSunny.10 mph21%29.83 "Hg10 mi
6:30 PM59 °FSunny.6 mph21%29.83 "Hg10 mi
6:00 PM61 °FSunny.10 mph23%29.86 "Hg10 mi
5:30 PM61 °FPassing clouds.6 mph22%29.86 "HgN/A
5:00 PM61 °FPassing clouds.6 mph22%29.86 "HgN/A
4:30 PM61 °FPassing clouds.6 mph23%29.89 "HgN/A
4:00 PM61 °FPassing clouds.6 mph22%29.89 "HgN/A
3:30 PM61 °FPassing clouds.6 mph22%29.89 "HgN/A
3:00 PM61 °FPassing clouds.8 mph22%29.92 "HgN/A
2:30 PM59 °FSunny.6 mph25%29.92 "Hg10 mi
2:00 PM59 °FSunny.10 mph25%29.95 "Hg10 mi
1:30 PM59 °FSunny.10 mph25%29.95 "Hg10 mi
1:00 PM59 °FSunny.10 mph27%29.98 "Hg10 mi
12:30 PM59 °FSunny.8 mph27%29.98 "Hg10 mi
12:00 PM57 °FSunny.10 mph31%30.01 "Hg10 mi
11:30 AM57 °FSunny.10 mph31%30.01 "Hg10 mi
11:00 AM57 °FSunny.13 mph29%30.01 "Hg10 mi
10:30 AM55 °FSunny.15 mph33%30.01 "Hg10 mi
10:00 AM52 °FSunny.6 mph44%30.01 "Hg10 mi
9:30 AM46 °FPassing clouds.3 mph53%30.04 "HgN/A
9:00 AM43 °FPassing clouds.3 mph61%30.04 "HgN/A
8:30 AM39 °FPassing clouds.3 mph65%30.04 "HgN/A
8:00 AM37 °FClear.3 mph70%30.04 "Hg10 mi
7:30 AM36 °FClear.3 mph75%30.04 "Hg10 mi
7:00 AM37 °FClear.6 mph65%30.04 "Hg10 mi
Weather by CustomWeather, © 2014

See weather overview